User: anonymous   Login
Location: El Bakhil
(32.7726°N, 5.5387°W)
Time: 13:50:45
(UTC+00:00)
Language:

ZACube-1 - Orbit

View from above orbital plane
View from above orbital plane
View from above satellite
View from above satellite

Ground track
Ground track

The orbit data is extracted from the following two-line orbital elements,

1 39417U 13066B   21214.71422678  .00000325  00000-0  46665-4 0  9998
2 39417  97.5953 196.6511 0058928  11.0856 349.1640 14.81556868415926
Epoch (UTC): 02 August 2021 17:08:29
Eccentricity: 0.0058928
inclination: 97.5953°
perigee height: 583 km
apogee height: 665 km
right ascension of ascending node: 196.6511°
argument of perigee: 11.0856°
revolutions per day: 14.81556868
mean anomaly at epoch: 349.1640°
orbit number at epoch: 41592

The dashed part of the orbit path shows where the satellite is in the earth's shadow,  

DLR